| time (UTC) | temp F | wind direction | speed MPH | gust MPH | rain 1hr in | rain 24hr in | rain mn in | humidity % | barometer mb |
| 20260509093317 | 61 | 137 | 0.0 | 3.0 | 0.00 | 0.00 | 0.00 | 62 | 1020.6 |
| 20260509092819 | 60 | 129 | 1.0 | 4.0 | 0.00 | 0.00 | 0.00 | 61 | 1020.5 |
| 20260509092324 | 60 | 49 | 2.0 | 4.0 | 0.00 | 0.00 | 0.00 | 62 | 1020.5 |
| 20260509091823 | 60 | 89 | 1.0 | 4.0 | 0.00 | 0.00 | 0.00 | 62 | 1020.5 |
| 20260509091323 | 60 | 49 | 0.0 | 4.0 | 0.00 | 0.00 | 0.00 | 64 | 1020.5 |
| 20260509090824 | 60 | 23 | 2.0 | 4.0 | 0.00 | 0.00 | 0.00 | 63 | 1020.5 |
| 20260509090325 | 60 | 43 | 0.0 | 3.0 | 0.00 | 0.00 | 0.00 | 67 | 1020.5 |
| 20260509085825 | 58 | 49 | 0.0 | 4.0 | 0.00 | 0.00 | 0.00 | 69 | 1020.5 |
| 20260509085325 | 58 | 50 | 2.0 | 4.0 | 0.00 | 0.00 | 0.00 | 68 | 1020.5 |
| 20260509084826 | 58 | 41 | 1.0 | 4.0 | 0.00 | 0.00 | 0.00 | 68 | 1020.6 |
| 20260509084327 | 58 | 11 | 2.0 | 3.0 | 0.00 | 0.00 | 0.00 | 68 | 1020.6 |
| 20260509083314 | 57 | 21 | 0.0 | 4.0 | 0.00 | 0.00 | 0.00 | 71 | 1020.5 |
| 20260509082814 | 57 | 22 | 2.0 | 4.0 | 0.00 | 0.00 | 0.00 | 72 | 1020.5 |
| 20260509082314 | 57 | 44 | 1.0 | 5.0 | 0.00 | 0.00 | 0.00 | 71 | 1020.5 |
| 20260509081816 | 57 | 32 | 3.0 | 5.0 | 0.00 | 0.00 | 0.00 | 70 | 1020.5 |
| 20260509081315 | 57 | 19 | 1.0 | 6.0 | 0.00 | 0.00 | 0.00 | 70 | 1020.5 |
| 20260509080815 | 57 | 43 | 3.0 | 6.0 | 0.00 | 0.00 | 0.00 | 67 | 1020.5 |
| 20260509080316 | 57 | 10 | 1.0 | 4.0 | 0.00 | 0.00 | 0.00 | 66 | 1020.5 |
| 20260509075816 | 57 | 14 | 2.0 | 5.0 | 0.00 | 0.00 | 0.00 | 72 | 1020.5 |
| 20260509075319 | 56 | 2 | 4.0 | 5.0 | 0.00 | 0.00 | 0.00 | 72 | 1020.5 |
| 20260509074820 | 56 | 37 | 2.0 | 6.0 | 0.00 | 0.00 | 0.00 | 73 | 1020.5 |
| 20260509074323 | 57 | 71 | 2.0 | 6.0 | 0.00 | 0.00 | 0.00 | 77 | 1020.5 |
| 20260509073823 | 56 | 56 | 2.0 | 7.0 | 0.00 | 0.00 | 0.00 | 79 | 1020.5 |
| 20260509073346 | 56 | 54 | 3.0 | 5.0 | 0.00 | 0.00 | 0.00 | 78 | 1020.5 |
| 20260509072828 | 56 | 57 | 2.0 | 5.0 | 0.00 | 0.00 | 0.00 | 77 | 1020.6 |
| 20260509072330 | 56 | 61 | 2.0 | 5.0 | 0.00 | 0.00 | 0.00 | 79 | 1020.6 |
| 20260509071812 | 56 | 40 | 3.0 | 5.0 | 0.00 | 0.00 | 0.00 | 77 | 1020.5 |
| 20260509071314 | 55 | 93 | 2.0 | 7.0 | 0.00 | 0.00 | 0.00 | 81 | 1020.5 |
| 20260509070817 | 55 | 54 | 4.0 | 7.0 | 0.00 | 0.00 | 0.00 | 79 | 1020.5 |
| 20260509070319 | 56 | 54 | 3.0 | 6.0 | 0.00 | 0.00 | 0.00 | 80 | 1020.5 |
| 20260509065821 | 55 | 79 | 2.0 | 6.0 | 0.00 | 0.00 | 0.00 | 84 | 1020.5 |
| 20260509065324 | 54 | 50 | 4.0 | 6.0 | 0.00 | 0.00 | 0.00 | 83 | 1020.5 |
| 20260509064846 | 55 | 53 | 3.0 | 6.0 | 0.00 | 0.00 | 0.00 | 83 | 1020.5 |
| 20260509064327 | 55 | 56 | 3.0 | 5.0 | 0.00 | 0.00 | 0.00 | 82 | 1020.4 |
| 20260509063827 | 55 | 53 | 1.0 | 4.0 | 0.00 | 0.00 | 0.00 | 82 | 1020.4 |
| 20260509063329 | 54 | 231 | 0.0 | 2.0 | 0.00 | 0.00 | 0.00 | 82 | 1020.4 |
| 20260509062828 | 54 | 208 | 0.0 | 3.0 | 0.00 | 0.00 | 0.00 | 85 | 1020.3 |
| 20260509062331 | 54 | 261 | 0.0 | 2.0 | 0.00 | 0.00 | 0.00 | 87 | 1020.3 |
| 20260509061849 | 53 | 346 | 1.0 | 2.0 | 0.00 | 0.00 | 0.00 | 89 | 1020.3 |
| 20260509061330 | 52 | 262 | 0.0 | 3.0 | 0.00 | 0.00 | 0.00 | 91 | 1020.3 |
| 20260509060852 | 51 | 262 | 1.0 | 3.0 | 0.00 | 0.00 | 0.00 | 91 | 1020.3 |
| 20260509060314 | 51 | 270 | 1.0 | 2.0 | 0.00 | 0.00 | 0.00 | 92 | 1020.4 |
| 20260509055817 | 50 | 68 | 0.0 | 1.0 | 0.00 | 0.00 | 0.00 | 93 | 1020.4 |
| 20260509055317 | 50 | 68 | 0.0 | 1.0 | 0.00 | 0.00 | 0.00 | 93 | 1020.4 |
| 20260509054819 | 50 | 68 | 0.0 | 1.0 | 0.00 | 0.00 | 0.00 | 93 | 1020.4 |
| 20260509054318 | 49 | 68 | 0.0 | 2.0 | 0.00 | 0.00 | 0.00 | 93 | 1020.4 |
| 20260509053818 | 49 | 68 | 0.0 | 2.0 | 0.00 | 0.00 | 0.00 | 93 | 1020.4 |
| 20260509053318 | 49 | 68 | 0.0 | 0.0 | 0.00 | 0.00 | 0.00 | 93 | 1020.4 |
| 20260509052819 | 49 | 68 | 0.0 | 0.0 | 0.00 | 0.00 | 0.00 | 93 | 1020.3 |
| 20260509052320 | 49 | 68 | 0.0 | 0.0 | 0.00 | 0.00 | 0.00 | 94 | 1020.3 |
| 20260509051823 | 49 | 68 | 0.0 | 0.0 | 0.00 | 0.00 | 0.00 | 94 | 1020.3 |
| 20260509051327 | 49 | 68 | 0.0 | 0.0 | 0.00 | 0.00 | 0.00 | 94 | 1020.2 |
| 20260509050829 | 49 | 68 | 0.0 | 0.0 | 0.00 | 0.00 | 0.00 | 94 | 1020.2 |
| 20260509050329 | 49 | 68 | 0.0 | 0.0 | 0.00 | 0.00 | 0.00 | 94 | 1020.2 |
| 20260509045822 | 49 | 68 | 0.0 | 0.0 | 0.00 | 0.00 | 0.00 | 94 | 1020.2 |
| 20260509045323 | 49 | 68 | 0.0 | 0.0 | 0.00 | 0.00 | 0.00 | 94 | 1020.2 |
| 20260509044823 | 49 | 68 | 0.0 | 0.0 | 0.00 | 0.00 | 0.00 | 94 | 1020.1 |
| 20260509044326 | 49 | 68 | 0.0 | 0.0 | 0.00 | 0.00 | 0.00 | 94 | 1020.1 |
| 20260509043848 | 48 | 68 | 0.0 | 1.0 | 0.00 | 0.00 | 0.00 | 94 | 1020.1 |
| 20260509043330 | 48 | 68 | 0.0 | 1.0 | 0.00 | 0.00 | 0.00 | 94 | 1020.0 |
| 20260509042813 | 48 | 68 | 0.0 | 1.0 | 0.00 | 0.00 | 0.00 | 94 | 1020.0 |
| 20260509042316 | 48 | 68 | 0.0 | 0.0 | 0.00 | 0.00 | 0.00 | 94 | 1019.9 |
| 20260509041820 | 48 | 68 | 0.0 | 0.0 | 0.00 | 0.00 | 0.00 | 94 | 1020.0 |
| 20260509041342 | 48 | 68 | 0.0 | 0.0 | 0.00 | 0.00 | 0.00 | 94 | 1020.0 |
| 20260509040844 | 48 | 68 | 0.0 | 0.0 | 0.00 | 0.00 | 0.00 | 94 | 1020.0 |
| 20260509040325 | 48 | 68 | 0.0 | 0.0 | 0.00 | 0.00 | 0.00 | 94 | 1019.9 |
| 20260509035827 | 48 | 68 | 0.0 | 0.0 | 0.00 | 0.00 | 0.00 | 94 | 1020.0 |
| 20260509035329 | 48 | 68 | 0.0 | 0.0 | 0.00 | 0.00 | 0.00 | 94 | 1019.9 |
| 20260509034831 | 48 | 68 | 0.0 | 0.0 | 0.00 | 0.00 | 0.00 | 94 | 1019.9 |
| 20260509034314 | 48 | 68 | 0.0 | 0.0 | 0.00 | 0.00 | 0.00 | 94 | 1019.9 |
| 20260509033817 | 48 | 68 | 0.0 | 0.0 | 0.00 | 0.00 | 0.00 | 94 | 1019.9 |
| 20260509033319 | 48 | 68 | 0.0 | 0.0 | 0.00 | 0.00 | 0.00 | 94 | 1020.0 |
| 20260509032820 | 48 | 68 | 0.0 | 0.0 | 0.00 | 0.00 | 0.00 | 94 | 1020.0 |
| 20260509032343 | 48 | 68 | 0.0 | 0.0 | 0.00 | 0.00 | 0.00 | 93 | 1020.0 |
| 20260509031823 | 48 | 68 | 0.0 | 0.0 | 0.00 | 0.00 | 0.00 | 94 | 1020.0 |
| 20260509031346 | 48 | 68 | 0.0 | 0.0 | 0.00 | 0.00 | 0.00 | 93 | 1020.0 |
| 20260509030848 | 48 | 68 | 0.0 | 0.0 | 0.00 | 0.00 | 0.00 | 93 | 1020.1 |
| 20260509030312 | 47 | 68 | 0.0 | 0.0 | 0.00 | 0.00 | 0.00 | 93 | 1020.0 |
| 20260509025813 | 48 | 68 | 0.0 | 1.0 | 0.00 | 0.00 | 0.00 | 93 | 1020.0 |
| 20260509025315 | 48 | 68 | 0.0 | 1.0 | 0.00 | 0.00 | 0.00 | 93 | 1020.1 |
| 20260509024816 | 48 | 68 | 0.0 | 0.0 | 0.00 | 0.00 | 0.00 | 93 | 1020.1 |
| 20260509024318 | 48 | 68 | 0.0 | 0.0 | 0.00 | 0.00 | 0.00 | 93 | 1020.2 |
| 20260509023839 | 48 | 68 | 0.0 | 0.0 | 0.00 | 0.00 | 0.00 | 92 | 1020.2 |
| 20260509023319 | 48 | 68 | 0.0 | 0.0 | 0.00 | 0.00 | 0.00 | 92 | 1020.1 |
| 20260509022819 | 48 | 68 | 0.0 | 0.0 | 0.00 | 0.00 | 0.00 | 92 | 1020.1 |
| 20260509022340 | 48 | 68 | 0.0 | 1.0 | 0.00 | 0.00 | 0.00 | 92 | 1020.1 |
| 20260509021819 | 48 | 68 | 0.0 | 1.0 | 0.00 | 0.00 | 0.00 | 91 | 1020.1 |
| 20260509021336 | 49 | 68 | 0.0 | 1.0 | 0.00 | 0.00 | 0.00 | 91 | 1020.1 |
| 20260509020836 | 49 | 68 | 0.0 | 1.0 | 0.00 | 0.00 | 0.00 | 92 | 1020.1 |
| 20260509020319 | 49 | 68 | 0.0 | 0.0 | 0.00 | 0.00 | 0.00 | 92 | 1020.1 |
| 20260509015822 | 49 | 68 | 0.0 | 2.0 | 0.00 | 0.00 | 0.00 | 92 | 1020.1 |
| 20260509015343 | 49 | 68 | 1.0 | 2.0 | 0.00 | 0.00 | 0.00 | 92 | 1020.1 |
| 20260509014825 | 48 | 79 | 0.0 | 0.0 | 0.00 | 0.00 | 0.00 | 91 | 1020.0 |
| 20260509014324 | 48 | 78 | 0.0 | 0.0 | 0.00 | 0.00 | 0.00 | 92 | 1020.0 |
| 20260509013843 | 48 | 79 | 0.0 | 0.0 | 0.00 | 0.00 | 0.00 | 91 | 1019.9 |
| 20260509013322 | 49 | 79 | 0.0 | 0.0 | 0.00 | 0.00 | 0.00 | 91 | 1020.0 |
| 20260509012823 | 49 | 79 | 0.0 | 0.0 | 0.00 | 0.00 | 0.00 | 91 | 1020.0 |
| 20260509012325 | 49 | 79 | 0.0 | 0.0 | 0.00 | 0.00 | 0.00 | 91 | 1020.0 |
| 20260509011824 | 49 | 79 | 0.0 | 0.0 | 0.00 | 0.00 | 0.00 | 90 | 1020.0 |
| 20260509011345 | 49 | 78 | 0.0 | 1.0 | 0.00 | 0.00 | 0.00 | 89 | 1019.9 |
| 20260509010825 | 49 | 78 | 0.0 | 1.0 | 0.00 | 0.00 | 0.00 | 89 | 1019.9 |
| 20260509010328 | 50 | 78 | 0.0 | 2.0 | 0.00 | 0.00 | 0.00 | 89 | 1019.9 |
| 20260509005830 | 50 | 78 | 1.0 | 2.0 | 0.00 | 0.00 | 0.00 | 89 | 1019.9 |
| 20260509005329 | 50 | 79 | 1.0 | 2.0 | 0.00 | 0.00 | 0.00 | 89 | 1019.9 |
| 20260509004831 | 50 | 79 | 0.0 | 2.0 | 0.00 | 0.00 | 0.00 | 88 | 1019.9 |
| 20260509004332 | 50 | 79 | 0.0 | 2.0 | 0.00 | 0.00 | 0.00 | 88 | 1019.9 |
| 20260509003832 | 50 | 78 | 0.0 | 3.0 | 0.00 | 0.00 | 0.00 | 88 | 1019.9 |
| 20260509003313 | 50 | 78 | 1.0 | 3.0 | 0.00 | 0.00 | 0.00 | 88 | 1019.9 |
| 20260509002814 | 50 | 53 | 1.0 | 3.0 | 0.00 | 0.00 | 0.00 | 88 | 1019.9 |
| 20260509002314 | 50 | 36 | 1.0 | 6.0 | 0.00 | 0.00 | 0.00 | 89 | 1019.9 |
| 20260509001815 | 50 | 60 | 3.0 | 6.0 | 0.00 | 0.00 | 0.00 | 90 | 1019.8 |
| 20260509001315 | 50 | 56 | 1.0 | 2.0 | 0.00 | 0.00 | 0.00 | 90 | 1019.9 |
| 20260509000818 | 51 | 23 | 0.0 | 2.0 | 0.00 | 0.00 | 0.00 | 91 | 1019.9 |
| 20260509000320 | 51 | 23 | 1.0 | 2.0 | 0.00 | 0.00 | 0.00 | 90 | 1019.9 |
| 20260508235842 | 51 | 15 | 1.0 | 2.0 | 0.00 | 0.04 | 0.00 | 90 | 1019.9 |
| 20260508235323 | 51 | 15 | 1.0 | 2.0 | 0.00 | 0.04 | 0.00 | 90 | 1019.9 |
| 20260508234844 | 51 | 15 | 0.0 | 1.0 | 0.00 | 0.04 | 0.00 | 90 | 1019.9 |
| 20260508234320 | 51 | 15 | 0.0 | 2.0 | 0.00 | 0.04 | 0.00 | 90 | 1019.9 |
| 20260508233821 | 51 | 15 | 1.0 | 2.0 | 0.00 | 0.04 | 0.00 | 90 | 1019.9 |
| 20260508233321 | 51 | 14 | 1.0 | 2.0 | 0.00 | 0.04 | 0.00 | 90 | 1019.9 |
| 20260508232822 | 51 | 3 | 1.0 | 3.0 | 0.00 | 0.04 | 0.00 | 90 | 1019.9 |
| 20260508232322 | 51 | 8 | 1.0 | 2.0 | 0.00 | 0.04 | 0.00 | 90 | 1020.0 |
| 20260508231822 | 51 | 22 | 0.0 | 1.0 | 0.00 | 0.04 | 0.00 | 89 | 1020.1 |
| 20260508231323 | 51 | 22 | 0.0 | 0.0 | 0.00 | 0.04 | 0.00 | 89 | 1020.1 |
| 20260508230844 | 51 | 22 | 0.0 | 0.0 | 0.00 | 0.04 | 0.00 | 89 | 1020.1 |
| 20260508230325 | 51 | 22 | 0.0 | 0.0 | 0.00 | 0.04 | 0.00 | 88 | 1020.1 |
| 20260508225845 | 51 | 22 | 0.0 | 0.0 | 0.00 | 0.08 | 0.00 | 88 | 1020.1 |
| 20260508225327 | 51 | 22 | 0.0 | 2.0 | 0.00 | 0.08 | 0.00 | 88 | 1020.1 |
| 20260508224830 | 51 | 26 | 0.0 | 1.0 | 0.00 | 0.08 | 0.00 | 88 | 1020.1 |
| 20260508224313 | 51 | 26 | 0.0 | 0.0 | 0.00 | 0.08 | 0.00 | 88 | 1020.1 |
| 20260508223815 | 51 | 26 | 0.0 | 0.0 | 0.00 | 0.08 | 0.00 | 87 | 1020.1 |
| 20260508223317 | 51 | 26 | 0.0 | 0.0 | 0.00 | 0.08 | 0.00 | 87 | 1020.2 |
| 20260508222821 | 51 | 26 | 0.0 | 1.0 | 0.00 | 0.08 | 0.00 | 87 | 1020.2 |
| 20260508222324 | 51 | 26 | 0.0 | 1.0 | 0.00 | 0.08 | 0.00 | 86 | 1020.2 |
| 20260508221826 | 52 | 26 | 1.0 | 1.0 | 0.00 | 0.08 | 0.00 | 86 | 1020.2 |
| 20260508221327 | 52 | 26 | 0.0 | 0.0 | 0.00 | 0.08 | 0.00 | 85 | 1020.1 |
| 20260508220829 | 52 | 26 | 0.0 | 0.0 | 0.00 | 0.08 | 0.00 | 85 | 1020.2 |
| 20260508215827 | 52 | 26 | 0.0 | 2.0 | 0.00 | 0.12 | 0.02 | 85 | 1020.2 |
| 20260508215326 | 52 | 26 | 1.0 | 2.0 | 0.00 | 0.12 | 0.02 | 85 | 1020.2 |
| 20260508214826 | 52 | 65 | 0.0 | 2.0 | 0.00 | 0.12 | 0.02 | 84 | 1020.2 |
| 20260508214330 | 53 | 65 | 1.0 | 2.0 | 0.00 | 0.12 | 0.02 | 82 | 1020.2 |
| 20260508213815 | 53 | 65 | 0.0 | 1.0 | 0.00 | 0.12 | 0.02 | 81 | 1020.2 |
| 20260508213339 | 53 | 65 | 0.0 | 1.0 | 0.00 | 0.12 | 0.02 | 81 | 1020.2 |
| 20260508212823 | 53 | 65 | 0.0 | 2.0 | 0.00 | 0.12 | 0.02 | 81 | 1020.2 |
| 20260508212325 | 53 | 65 | 0.0 | 2.0 | 0.00 | 0.12 | 0.02 | 81 | 1020.1 |
| 20260508211825 | 53 | 65 | 0.0 | 2.0 | 0.00 | 0.12 | 0.02 | 81 | 1020.2 |
| 20260508211327 | 53 | 65 | 1.0 | 3.0 | 0.00 | 0.12 | 0.02 | 82 | 1020.1 |
| 20260508210830 | 53 | 49 | 1.0 | 3.0 | 0.00 | 0.12 | 0.02 | 82 | 1020.1 |
| 20260508210329 | 53 | 39 | 0.0 | 2.0 | 0.00 | 0.12 | 0.02 | 82 | 1020.1 |
| 20260508205832 | 53 | 40 | 1.0 | 2.0 | 0.00 | 0.12 | 0.02 | 81 | 1020.1 |
| 20260508205332 | 53 | 39 | 0.0 | 4.0 | 0.00 | 0.12 | 0.02 | 80 | 1020.2 |
| 20260508204813 | 53 | 39 | 1.0 | 4.0 | 0.00 | 0.12 | 0.02 | 80 | 1020.1 |
| 20260508204313 | 53 | 46 | 2.0 | 4.0 | 0.00 | 0.12 | 0.02 | 80 | 1020.1 |
| 20260508203816 | 53 | 62 | 2.0 | 6.0 | 0.00 | 0.12 | 0.02 | 79 | 1020.0 |
| 20260508203317 | 53 | 63 | 3.0 | 6.0 | 0.00 | 0.12 | 0.02 | 79 | 1020.0 |
| 20260508202840 | 53 | 48 | 4.0 | 6.0 | 0.00 | 0.12 | 0.02 | 79 | 1019.9 |
| 20260508202336 | 53 | 64 | 3.0 | 5.0 | 0.00 | 0.12 | 0.02 | 79 | 1019.9 |
| 20260508201818 | 53 | 48 | 1.0 | 4.0 | 0.00 | 0.12 | 0.02 | 79 | 1020.0 |
| 20260508201321 | 53 | 48 | 3.0 | 4.0 | 0.00 | 0.12 | 0.02 | 80 | 1020.0 |
| 20260508200824 | 54 | 58 | 2.0 | 5.0 | 0.00 | 0.12 | 0.02 | 79 | 1020.0 |
| 20260508200327 | 54 | 54 | 2.0 | 5.0 | 0.00 | 0.12 | 0.02 | 79 | 1020.0 |
| 20260508195827 | 54 | 47 | 3.0 | 5.0 | 0.00 | 0.12 | 0.02 | 79 | 1019.9 |
| 20260508195330 | 54 | 44 | 3.0 | 5.0 | 0.00 | 0.12 | 0.02 | 79 | 1019.9 |
| 20260508194813 | 54 | 56 | 2.0 | 6.0 | 0.00 | 0.12 | 0.02 | 79 | 1019.9 |
| 20260508194315 | 54 | 53 | 3.0 | 5.0 | 0.00 | 0.12 | 0.02 | 79 | 1019.9 |
| 20260508193819 | 54 | 45 | 3.0 | 6.0 | 0.00 | 0.12 | 0.02 | 78 | 1019.9 |
| 20260508193320 | 54 | 70 | 4.0 | 6.0 | 0.00 | 0.12 | 0.02 | 78 | 1019.9 |
| 20260508192843 | 54 | 39 | 3.0 | 6.0 | 0.00 | 0.12 | 0.02 | 77 | 1019.8 |
| 20260508192326 | 54 | 38 | 4.0 | 6.0 | 0.00 | 0.12 | 0.02 | 77 | 1019.8 |
| 20260508191830 | 54 | 71 | 2.0 | 5.0 | 0.00 | 0.12 | 0.02 | 76 | 1019.7 |
| 20260508191335 | 54 | 32 | 2.0 | 5.0 | 0.00 | 0.12 | 0.02 | 76 | 1019.7 |
| 20260508190839 | 54 | 47 | 3.0 | 5.0 | 0.00 | 0.12 | 0.02 | 75 | 1019.7 |
| 20260508190319 | 54 | 52 | 2.0 | 5.0 | 0.00 | 0.12 | 0.02 | 75 | 1019.6 |
| 20260508185823 | 54 | 16 | 3.0 | 5.0 | 0.00 | 0.16 | 0.02 | 75 | 1019.6 |
| 20260508185327 | 54 | 53 | 3.0 | 6.0 | 0.00 | 0.16 | 0.02 | 75 | 1019.6 |
| 20260508184831 | 54 | 36 | 2.0 | 5.0 | 0.00 | 0.16 | 0.02 | 74 | 1019.5 |
| 20260508184316 | 54 | 42 | 3.0 | 5.0 | 0.00 | 0.16 | 0.02 | 74 | 1019.6 |
| 20260508183819 | 54 | 55 | 3.0 | 5.0 | 0.00 | 0.16 | 0.02 | 74 | 1019.5 |
| 20260508183320 | 54 | 47 | 2.0 | 5.0 | 0.00 | 0.16 | 0.02 | 74 | 1019.5 |
| 20260508182842 | 54 | 46 | 2.0 | 5.0 | 0.00 | 0.16 | 0.02 | 73 | 1019.5 |
| 20260508182323 | 54 | 54 | 2.0 | 4.0 | 0.00 | 0.16 | 0.02 | 73 | 1019.4 |
| 20260508181824 | 54 | 32 | 2.0 | 4.0 | 0.00 | 0.16 | 0.02 | 73 | 1019.3 |
| 20260508181324 | 54 | 32 | 2.0 | 5.0 | 0.00 | 0.16 | 0.02 | 73 | 1019.3 |
| 20260508180822 | 54 | 48 | 2.0 | 5.0 | 0.00 | 0.16 | 0.02 | 74 | 1019.2 |
| 20260508180323 | 54 | 3 | 1.0 | 4.0 | 0.00 | 0.16 | 0.02 | 75 | 1019.2 |
| 20260508175843 | 54 | 41 | 2.0 | 6.0 | 0.00 | 0.24 | 0.02 | 75 | 1019.1 |
| 20260508175322 | 55 | 30 | 2.0 | 7.0 | 0.00 | 0.24 | 0.02 | 74 | 1019.2 |
| 20260508174824 | 55 | 18 | 2.0 | 7.0 | 0.00 | 0.24 | 0.02 | 74 | 1019.1 |
| 20260508174326 | 55 | 32 | 3.0 | 6.0 | 0.00 | 0.24 | 0.02 | 75 | 1019.1 |
| 20260508173829 | 55 | 32 | 2.0 | 6.0 | 0.00 | 0.24 | 0.02 | 75 | 1019.1 |
| 20260508173312 | 55 | 30 | 2.0 | 4.0 | 0.00 | 0.24 | 0.02 | 75 | 1019.1 |
| 20260508172815 | 55 | 41 | 2.0 | 4.0 | 0.00 | 0.24 | 0.02 | 75 | 1019.1 |
| 20260508172317 | 55 | 45 | 3.0 | 4.0 | 0.00 | 0.24 | 0.02 | 74 | 1019.1 |
| 20260508171840 | 55 | 52 | 2.0 | 4.0 | 0.00 | 0.24 | 0.02 | 74 | 1019.1 |
| 20260508171322 | 55 | 44 | 2.0 | 6.0 | 0.00 | 0.24 | 0.02 | 74 | 1019.0 |
| 20260508170824 | 55 | 54 | 3.0 | 6.0 | 0.00 | 0.24 | 0.02 | 73 | 1019.0 |
| 20260508170327 | 55 | 35 | 2.0 | 5.0 | 0.00 | 0.24 | 0.02 | 73 | 1019.0 |
| 20260508165831 | 55 | 70 | 2.0 | 7.0 | 0.00 | 0.67 | 0.02 | 73 | 1018.9 |
| 20260508165315 | 55 | 42 | 3.0 | 7.0 | 0.00 | 0.67 | 0.02 | 73 | 1018.8 |
| 20260508164820 | 55 | 27 | 3.0 | 6.0 | 0.00 | 0.67 | 0.02 | 74 | 1018.8 |
| 20260508164326 | 55 | 64 | 2.0 | 5.0 | 0.00 | 0.67 | 0.02 | 73 | 1018.9 |
| 20260508163832 | 55 | 61 | 2.0 | 5.0 | 0.00 | 0.67 | 0.02 | 73 | 1018.9 |
| 20260508163313 | 55 | 30 | 3.0 | 5.0 | 0.00 | 0.67 | 0.02 | 72 | 1018.9 |
| 20260508162836 | 55 | 51 | 2.0 | 5.0 | 0.00 | 0.67 | 0.02 | 71 | 1018.9 |
| 20260508162338 | 56 | 62 | 3.0 | 4.0 | 0.00 | 0.67 | 0.02 | 72 | 1018.9 |
| 20260508161819 | 56 | 34 | 2.0 | 6.0 | 0.00 | 0.67 | 0.02 | 72 | 1018.9 |
| 20260508161321 | 56 | 29 | 2.0 | 6.0 | 0.00 | 0.67 | 0.02 | 72 | 1019.0 |
| 20260508160823 | 56 | 46 | 2.0 | 7.0 | 0.00 | 0.67 | 0.02 | 72 | 1018.9 |
| 20260508160323 | 56 | 46 | 3.0 | 7.0 | 0.00 | 0.67 | 0.02 | 71 | 1019.0 |
| 20260508155823 | 56 | 21 | 3.0 | 5.0 | 0.00 | 0.87 | 0.02 | 71 | 1018.9 |
| 20260508155326 | 56 | 39 | 2.0 | 5.0 | 0.00 | 0.87 | 0.02 | 71 | 1018.9 |
| 20260508154829 | 56 | 65 | 2.0 | 5.0 | 0.00 | 0.87 | 0.02 | 71 | 1018.9 |
| 20260508154314 | 56 | 62 | 3.0 | 6.0 | 0.00 | 0.87 | 0.02 | 71 | 1018.9 |
| 20260508153817 | 56 | 55 | 5.0 | 9.0 | 0.00 | 0.87 | 0.02 | 70 | 1018.9 |
| 20260508153322 | 56 | 63 | 4.0 | 6.0 | 0.00 | 0.87 | 0.02 | 70 | 1018.8 |
| 20260508152827 | 56 | 58 | 3.0 | 8.0 | 0.00 | 0.87 | 0.02 | 70 | 1018.8 |
| 20260508152330 | 56 | 34 | 4.0 | 8.0 | 0.00 | 0.87 | 0.02 | 69 | 1018.8 |
| 20260508151831 | 56 | 53 | 5.0 | 7.0 | 0.00 | 0.87 | 0.02 | 68 | 1018.8 |
| 20260508151331 | 57 | 56 | 3.0 | 6.0 | 0.00 | 0.87 | 0.02 | 69 | 1018.8 |
| 20260508150829 | 57 | 44 | 3.0 | 7.0 | 0.00 | 0.87 | 0.02 | 68 | 1018.7 |
| 20260508150330 | 57 | 53 | 1.0 | 4.0 | 0.00 | 0.87 | 0.02 | 68 | 1018.8 |
| 20260508145829 | 57 | 53 | 0.0 | 2.0 | 0.00 | 0.87 | 0.02 | 69 | 1018.8 |
| 20260508145330 | 57 | 53 | 1.0 | 3.0 | 0.00 | 0.87 | 0.02 | 67 | 1018.9 |
| 20260508144831 | 57 | 57 | 1.0 | 4.0 | 0.00 | 0.87 | 0.02 | 67 | 1018.9 |
| 20260508144314 | 57 | 58 | 1.0 | 4.0 | 0.00 | 0.87 | 0.02 | 68 | 1018.9 |
| 20260508143838 | 57 | 55 | 1.0 | 4.0 | 0.00 | 0.87 | 0.02 | 66 | 1018.8 |
| 20260508143320 | 57 | 61 | 1.0 | 4.0 | 0.00 | 0.87 | 0.02 | 67 | 1018.8 |
| 20260508142823 | 58 | 50 | 0.0 | 3.0 | 0.00 | 0.87 | 0.02 | 67 | 1018.9 |
| 20260508142326 | 58 | 133 | 1.0 | 3.0 | 0.00 | 0.87 | 0.02 | 67 | 1018.9 |
| 20260508141829 | 58 | 110 | 0.0 | 4.0 | 0.00 | 0.87 | 0.02 | 68 | 1018.9 |
| 20260508141332 | 58 | 49 | 2.0 | 4.0 | 0.00 | 0.87 | 0.02 | 67 | 1018.9 |
| 20260508140835 | 57 | 36 | 0.0 | 4.0 | 0.00 | 0.87 | 0.02 | 69 | 1019.0 |
| 20260508140359 | 57 | 7 | 1.0 | 6.0 | 0.00 | 0.87 | 0.02 | 70 | 1018.9 |
| 20260508135842 | 57 | 23 | 4.0 | 6.0 | 0.00 | 0.87 | 0.02 | 68 | 1019.0 |
| 20260508135322 | 57 | 58 | 3.0 | 6.0 | 0.00 | 0.87 | 0.02 | 69 | 1018.9 |
| 20260508134825 | 57 | 46 | 1.0 | 5.0 | 0.00 | 0.87 | 0.02 | 69 | 1018.9 |
| 20260508134327 | 57 | 33 | 2.0 | 4.0 | 0.00 | 0.87 | 0.02 | 70 | 1018.9 |
| 20260508133830 | 57 | 51 | 2.0 | 5.0 | 0.00 | 0.87 | 0.02 | 71 | 1018.9 |
| 20260508133313 | 56 | 46 | 3.0 | 6.0 | 0.00 | 0.87 | 0.02 | 71 | 1018.9 |
| 20260508132814 | 56 | 8 | 2.0 | 6.0 | 0.00 | 0.87 | 0.02 | 71 | 1018.9 |
| 20260508132318 | 56 | 51 | 1.0 | 6.0 | 0.00 | 0.87 | 0.02 | 71 | 1018.9 |
| 20260508131822 | 56 | 53 | 4.0 | 7.0 | 0.00 | 0.87 | 0.02 | 69 | 1018.9 |
| 20260508131344 | 57 | 68 | 3.0 | 7.0 | 0.00 | 0.87 | 0.02 | 70 | 1019.0 |
| 20260508130825 | 57 | 349 | 2.0 | 6.0 | 0.00 | 0.87 | 0.02 | 71 | 1019.0 |
| 20260508130349 | 57 | 8 | 3.0 | 6.0 | 0.00 | 0.87 | 0.02 | 69 | 1019.0 |
| 20260508125829 | 58 | 49 | 2.0 | 7.0 | 0.00 | 0.87 | 0.02 | 70 | 1019.1 |
| 20260508125329 | 57 | 51 | 2.0 | 7.0 | 0.00 | 0.87 | 0.02 | 71 | 1019.1 |
| 20260508124830 | 58 | 48 | 4.0 | 7.0 | 0.00 | 0.87 | 0.02 | 70 | 1019.1 |
| 20260508124313 | 58 | 44 | 3.0 | 5.0 | 0.00 | 0.87 | 0.02 | 68 | 1019.2 |
| 20260508123817 | 58 | 91 | 1.0 | 5.0 | 0.00 | 0.87 | 0.02 | 68 | 1019.2 |
| 20260508123320 | 58 | 125 | 3.0 | 5.0 | 0.00 | 0.87 | 0.02 | 68 | 1019.2 |
| 20260508122826 | 59 | 57 | 2.0 | 6.0 | 0.00 | 0.87 | 0.02 | 69 | 1019.2 |
| 20260508122327 | 58 | 57 | 2.0 | 7.0 | 0.00 | 0.87 | 0.02 | 68 | 1019.2 |
| 20260508121847 | 58 | 71 | 2.0 | 7.0 | 0.00 | 0.87 | 0.02 | 71 | 1019.1 |
| 20260508121327 | 57 | 49 | 4.0 | 7.0 | 0.00 | 0.87 | 0.02 | 71 | 1019.1 |
| 20260508120828 | 57 | 50 | 4.0 | 7.0 | 0.00 | 0.87 | 0.02 | 72 | 1019.1 |
| 20260508120327 | 56 | 49 | 5.0 | 7.0 | 0.00 | 0.87 | 0.02 | 69 | 1019.1 |
| 20260508115848 | 57 | 38 | 3.0 | 6.0 | 0.00 | 0.87 | 0.02 | 72 | 1019.2 |
| 20260508115328 | 56 | 11 | 3.0 | 6.0 | 0.00 | 0.87 | 0.02 | 70 | 1019.1 |
| 20260508114829 | 57 | 50 | 3.0 | 6.0 | 0.00 | 0.87 | 0.02 | 70 | 1019.2 |
| 20260508114332 | 57 | 45 | 2.0 | 5.0 | 0.00 | 0.87 | 0.02 | 70 | 1019.2 |
| 20260508113814 | 56 | 53 | 2.0 | 6.0 | 0.00 | 0.87 | 0.02 | 71 | 1019.3 |
| 20260508113336 | 56 | 70 | 3.0 | 6.0 | 0.00 | 0.87 | 0.02 | 70 | 1019.2 |
| 20260508112819 | 55 | 346 | 3.0 | 6.0 | 0.00 | 0.87 | 0.02 | 72 | 1019.3 |
| 20260508112322 | 55 | 47 | 1.0 | 5.0 | 0.00 | 0.87 | 0.02 | 72 | 1019.3 |
| 20260508111824 | 55 | 27 | 2.0 | 8.0 | 0.00 | 0.87 | 0.02 | 72 | 1019.3 |
| 20260508111327 | 55 | 46 | 6.0 | 8.0 | 0.00 | 0.87 | 0.02 | 73 | 1019.3 |
| 20260508110830 | 56 | 44 | 4.0 | 7.0 | 0.00 | 0.87 | 0.02 | 72 | 1019.3 |
| 20260508110313 | 55 | 27 | 1.0 | 7.0 | 0.00 | 0.87 | 0.02 | 74 | 1019.3 |
| 20260508105817 | 55 | 46 | 2.0 | 7.0 | 0.00 | 1.02 | 0.02 | 73 | 1019.4 |
| 20260508105321 | 55 | 6 | 3.0 | 7.0 | 0.00 | 1.02 | 0.02 | 75 | 1019.4 |
| 20260508104823 | 55 | 11 | 3.0 | 8.0 | 0.00 | 1.02 | 0.02 | 76 | 1019.4 |
| 20260508104326 | 55 | 39 | 6.0 | 8.0 | 0.00 | 1.02 | 0.02 | 73 | 1019.4 |
| 20260508103828 | 56 | 29 | 3.0 | 8.0 | 0.00 | 1.02 | 0.02 | 73 | 1019.4 |
| 20260508103331 | 55 | 39 | 5.0 | 8.0 | 0.00 | 1.02 | 0.02 | 73 | 1019.3 |
| 20260508102813 | 56 | 1 | 5.0 | 7.0 | 0.00 | 1.02 | 0.02 | 75 | 1019.3 |
| 20260508102315 | 55 | 16 | 4.0 | 9.0 | 0.00 | 1.02 | 0.02 | 77 | 1019.3 |
| 20260508101818 | 54 | 34 | 4.0 | 9.0 | 0.00 | 1.02 | 0.02 | 77 | 1019.2 |
| 20260508101321 | 55 | 27 | 6.0 | 9.0 | 0.00 | 1.02 | 0.02 | 75 | 1019.3 |
| 20260508100824 | 54 | 18 | 4.0 | 8.0 | 0.00 | 1.02 | 0.02 | 78 | 1019.3 |
| 20260508100325 | 54 | 39 | 4.0 | 8.0 | 0.00 | 1.02 | 0.02 | 77 | 1019.4 |
| 20260508095828 | 54 | 354 | 4.0 | 7.0 | 0.00 | 1.46 | 0.02 | 76 | 1019.4 |
| 20260508095329 | 54 | 48 | 3.0 | 7.0 | 0.00 | 1.46 | 0.02 | 78 | 1019.4 |
| 20260508094830 | 54 | 39 | 4.0 | 7.0 | 0.00 | 1.46 | 0.02 | 77 | 1019.4 |
| 20260508094332 | 54 | 53 | 4.0 | 6.0 | 0.00 | 1.46 | 0.02 | 77 | 1019.4 |
| 20260508093816 | 54 | 56 | 3.0 | 6.0 | 0.00 | 1.46 | 0.02 | 76 | 1019.4 |